Wind_Speed
13 13 13 12 12 12 12 12 12 12 12 12 11 9 9 10 11 11 11 11 11 11 11 11 11 11 12 13 13 13 14 13 13 13 13 15 15 15 15 15 15 15 16 16
13 12 12 12 12 12 12 12 12 12 12 12 9 9 9 10 11 12 11 11 11 10 10 10 11 11 11 12 12 13 13 13 14 13 13 14 14 15 14 13 13 13 13 14
12 12 12 12 12 13 12 12 13 13 13 12 12 11 10 10 12 12 11 10 10 10 10 10 11 12 12 12 13 12 12 13 12 12 12 12 13 13 13 12 12 13 13 13
12 12 13 12 12 13 12 12 13 13 13 12 12 11 9 11 11 11 10 10 10 9 10 10 11 12 12 12 12 11 11 12 12 11 11 12 12 12 12 11 12 13 13 13
12 13 13 12 12 13 12 12 12 12 12 11 12 12 9 10 9 9 9 10 9 10 10 10 11 12 12 11 11 11 11 11 11 11 12 12 12 12 11 11 11 12 13 13
13 13 13 12 11 12 12 12 11 12 12 12 10 11 9 8 8 8 8 9 10 10 10 10 10 11 11 10 11 11 10 11 11 11 12 13 13 12 12 11 11 12 13 13
14 14 13 13 12 12 12 12 12 12 11 11 9 10 9 8 9 9 10 10 11 11 11 10 10 11 10 10 10 10 11 11 11 12 13 12 12 12 12 12 12 12 12 13
14 15 14 13 12 12 13 12 12 13 12 11 11 10 10 10 10 11 11 11 12 12 11 11 11 11 11 11 11 10 10 11 11 11 12 12 12 12 12 12 12 12 12 13
14 14 13 13 12 12 13 13 13 13 13 12 12 11 11 11 12 12 12 12 12 11 11 11 11 11 11 11 11 10 11 11 11 11 11 12 12 12 13 13 13 13 14 14
14 14 14 13 13 14 14 15 14 13 13 13 13 13 13 12 13 13 14 14 12 11 11 11 12 11 11 11 11 11 11 11 11 11 12 13 13 13 13 14 15 15 16 17
15 15 14 15 15 14 14 14 14 13 13 13 13 14 13 13 14 15 15 15 13 13 12 12 12 12 12 11 11 11 11 11 11 12 13 13 13 13 14 15 15 15 17 17
16 16 16 15 14 14 15 15 15 15 15 15 15 15 15 15 15 16 16 15 14 15 14 13 13 13 13 12 12 12 12 12 12 13 13 14 15 15 15 16 16 16 17 16
16 17 17 17 16 16 17 17 16 16 16 16 16 15 16 17 17 16 16 15 15 15 15 15 15 15 15 14 13 13 13 12 13 14 15 16 16 17 17 17 17 17 17 17
18 17 17 17 17 18 18 18 17 17 18 18 18 17 17 17 17 17 17 16 15 16 15 15 15 16 15 14 14 14 14 14 15 15 16 17 18 18 18 18 18 18 18 18
20 19 19 19 19 20 20 20 19 19 19 19 19 19 18 18 18 18 17 16 16 15 15 16 16 16 16 16 15 15 15 15 16 17 17 18 19 18 19 19 19 19 19 18
21 21 20 21 20 21 21 21 20 19 19 19 19 18 19 19 17 17 17 17 17 17 17 17 17 17 18 18 18 17 17 17 17 18 18 19 19 19 19 19 19 19 18 18
21 21 21 21 21 21 22 21 20 19 19 19 19 19 18 18 18 17 17 17 17 17 17 18 18 18 19 20 20 19 19 18 18 18 18 19 19 19 19 18 18 18 18 19
20 21 21 21 21 21 19 19 19 19 19 18 18 18 18 19 18 18 17 17 17 17 17 17 17 17 18 19 19 18 18 18 19 19 19 20 19 18 17 17 17 18 19 19
20 21 21 21 21 21 19 18 17 18 19 19 19 19 18 18 18 18 17 17 16 16 16 16 17 17 17 16 16 16 17 19 19 20 20 19 19 19 18 17 18 18 19 20
21 21 21 21 21 20 18 18 18 18 18 18 19 18 18 18 18 17 18 18 18 17 17 17 17 17 17 17 17 17 18 20 20 19 19 19 19 19 19 19 20 19 20 20
22 22 22 21 21 20 20 19 19 19 18 18 19 19 19 19 18 18 18 18 18 18 18 18 18 18 17 18 18 17 18 18 18 18 19 19 19 19 19 20 20 20 20 19
21 22 22 22 22 22 21 21 21 19 19 19 19 20 20 19 18 18 18 17 17 17 17 17 18 18 18 18 18 18 17 17 17 18 18 18 19 19 19 19 19 20 19 20
20 21 21 22 23 22 22 22 22 21 20 20 20 20 20 19 18 18 17 18 18 17 17 18 17 17 18 18 17 18 18 18 18 18 17 17 18 18 19 19 20 20 20 20
22 22 23 24 24 24 24 23 23 22 22 21 20 20 20 20 19 19 18 18 18 18 18 18 18 17 18 18 19 19 19 18 17 17 18 18 19 20 20 20 20 20 20 20
23 25 25 25 25 25 25 24 24 24 23 22 21 20 20 19 19 18 18 18 18 18 18 19 19 19 19 19 19 19 19 19 19 19 20 21 21 21 20 21 21 20 21 21
24 24 24 25 25 25 25 24 24 24 23 22 21 21 21 20 19 19 18 18 18 19 20 20 20 19 19 19 20 20 20 20 19 20 20 21 22 21 21 21 21 22 22 22
Wind_Direction
231 229 229 234 240 246 252 254 259 265 266 271 274 274 277 283 286 287 296 304 309 308 310 311 310 311 310 307 305 302 302 304 304 304 302 297 294 292 286 283 285 286 283 282
231 230 230 236 243 249 252 257 260 264 273 272 274 276 281 288 288 289 297 303 307 308 306 309 311 310 312 310 309 306 305 306 306 306 308 303 299 299 293 286 289 290 289 291
231 228 232 238 242 249 250 259 262 266 271 274 278 282 279 281 283 288 294 302 307 309 307 306 309 307 308 306 307 308 308 310 312 309 313 315 313 309 302 294 291 292 294 296
230 231 234 240 245 249 251 258 262 263 267 270 279 285 284 284 284 286 290 298 306 311 311 309 309 308 308 310 308 307 312 316 317 314 316 319 316 311 307 303 296 295 299 298
228 228 231 237 243 246 250 256 258 262 266 274 279 281 289 291 290 292 296 299 301 305 310 311 312 312 312 310 310 309 313 319 324 321 317 318 316 316 317 314 305 299 300 301
227 227 231 235 237 241 245 251 257 263 265 269 274 275 284 290 293 294 296 303 303 304 306 307 311 316 314 312 313 312 314 321 325 324 318 314 314 317 318 314 308 304 306 304
225 224 226 229 234 237 245 252 259 263 264 267 269 273 285 291 291 294 297 303 306 306 306 307 310 316 317 319 318 317 319 321 322 323 324 320 318 320 319 318 314 310 309 306
228 223 223 230 240 244 247 253 260 264 264 270 277 279 286 290 290 292 295 300 304 307 307 310 312 311 311 313 319 323 323 325 324 326 327 327 325 320 319 318 315 311 310 310
231 226 225 233 240 247 251 254 257 262 265 271 277 283 286 288 289 292 294 297 301 307 305 305 308 307 309 309 315 320 324 325 329 333 335 332 328 324 320 316 314 311 309 308
237 236 233 234 240 246 252 255 255 257 265 273 280 288 292 288 291 294 296 298 299 303 305 306 307 305 305 308 313 315 318 321 324 328 328 330 327 324 322 318 315 312 310 308
241 242 241 240 240 248 256 257 254 256 266 276 283 289 290 290 292 294 296 294 293 294 299 301 304 304 300 301 304 306 311 313 316 320 322 324 324 324 323 323 319 316 314 311
241 243 246 249 249 253 258 259 258 262 267 273 283 289 291 290 290 292 293 292 291 292 293 296 297 297 298 298 301 302 304 306 309 314 318 321 323 323 322 322 320 317 316 314
243 245 247 250 253 256 260 262 262 267 271 275 282 286 291 290 286 286 290 292 292 293 295 297 295 293 295 297 299 302 305 304 309 315 318 319 320 320 320 319 318 317 315 313
247 248 252 255 255 258 260 262 266 270 275 278 281 284 285 285 284 286 289 291 294 295 295 294 294 295 296 296 299 301 304 305 308 311 313 314 315 315 316 315 314 315 314 311
248 250 253 256 255 256 259 262 265 269 274 276 277 279 281 283 283 286 287 288 288 291 293 292 291 292 292 292 293 295 297 299 302 305 309 310 311 310 310 310 311 311 311 310
249 254 255 257 260 259 260 263 265 267 270 273 275 277 278 278 281 284 284 283 283 283 287 289 289 288 289 289 287 286 290 294 297 301 305 307 308 309 309 308 308 309 310 313
252 257 259 261 264 265 262 264 264 267 269 271 273 275 275 277 279 281 282 282 282 282 284 287 288 287 289 288 286 283 284 289 294 298 301 304 306 308 309 308 309 309 311 313
254 258 259 261 263 262 264 264 262 264 268 271 275 277 276 277 277 277 280 281 282 282 284 287 289 291 292 290 288 283 285 289 292 295 298 302 303 307 308 308 310 310 309 310
253 256 258 260 261 261 261 263 262 263 265 270 275 276 278 280 279 277 278 280 282 283 283 286 288 290 293 292 290 287 286 290 291 293 295 301 304 307 306 307 309 310 310 310
252 255 258 258 259 259 263 264 265 266 268 272 275 277 281 285 283 280 277 278 278 279 280 282 284 285 287 289 290 287 287 289 291 293 296 300 303 306 307 310 312 311 312 312
252 254 255 255 257 260 264 266 267 268 272 272 276 280 284 287 285 283 283 283 281 280 279 282 283 284 286 287 288 288 287 286 290 293 295 298 302 306 308 309 311 311 311 312
250 252 253 255 258 260 265 267 268 271 272 272 274 277 282 284 284 286 287 285 284 285 285 285 286 286 285 286 287 286 288 291 292 294 296 297 299 303 305 305 308 311 310 310
250 251 253 256 258 261 263 265 268 269 270 272 274 277 280 280 281 282 282 283 284 284 285 286 287 285 286 285 286 286 288 290 291 293 296 298 301 302 304 305 307 308 308 308
252 252 254 257 257 260 263 266 268 269 271 272 273 275 277 277 278 279 281 282 284 284 284 285 285 286 284 283 285 287 289 292 294 296 298 299 301 303 305 307 308 307 307 307
254 255 256 255 256 259 262 264 266 268 269 269 270 271 275 276 276 277 279 281 282 282 284 284 284 285 284 283 282 284 288 291 292 294 297 300 302 303 306 307 306 307 308 308
256 257 256 256 257 259 262 263 265 268 269 269 269 270 273 278 274 274 277 280 282 283 285 286 286 287 286 284 283 282 285 287 289 293 296 299 301 302 302 303 303 305 307 307
Height
5829 5832 5833 5835 5836 5837 5838 5839 5839 5839 5839 5839 5838 5838 5838 5837 5837 5836 5836 5835 5833 5832 5830 5829 5828 5827 5825 5824 5823 5822 5820 5818 5816 5814 5813 5811 5810 5808 5806 5805 5803 5802 5800 5798
5828 5830 5832 5833 5834 5835 5836 5837 5837 5838 5837 5837 5836 5836 5836 5835 5835 5834 5833 5833 5832 5830 5828 5827 5826 5824 5823 5821 5820 5818 5817 5815 5813 5811 5810 5808 5806 5805 5803 5801 5800 5798 5796 5794
5826 5829 5830 5831 5832 5833 5834 5835 5835 5836 5835 5834 5834 5834 5833 5833 5832 5831 5831 5830 5829 5828 5826 5825 5824 5822 5821 5819 5818 5816 5814 5812 5810 5808 5807 5805 5803 5801 5800 5798 5797 5795 5794 5792
5823 5826 5827 5829 5829 5830 5831 5833 5833 5833 5832 5832 5832 5831 5831 5830 5830 5829 5828 5828 5826 5825 5824 5823 5822 5820 5819 5817 5815 5813 5812 5810 5808 5806 5804 5802 5800 5799 5797 5795 5794 5793 5791 5790
5822 5823 5825 5826 5828 5828 5829 5830 5830 5830 5830 5830 5830 5829 5830 5828 5827 5827 5826 5825 5824 5823 5822 5820 5819 5818 5816 5815 5813 5811 5809 5808 5806 5804 5802 5800 5798 5796 5794 5793 5791 5790 5789 5787
5819 5821 5823 5824 5825 5826 5826 5827 5827 5827 5828 5828 5828 5828 5828 5827 5826 5825 5824 5823 5822 5821 5819 5818 5817 5815 5814 5812 5811 5809 5807 5805 5803 5801 5799 5797 5795 5793 5792 5790 5789 5787 5786 5784
5817 5819 5820 5822 5823 5824 5824 5825 5825 5825 5825 5826 5826 5826 5827 5826 5825 5824 5823 5822 5820 5819 5818 5816 5815 5813 5811 5810 5808 5807 5805 5803 5801 5799 5797 5795 5793 5791 5789 5787 5786 5785 5783 5781
5814 5817 5818 5819 5820 5821 5822 5823 5824 5824 5823 5824 5824 5824 5825 5824 5823 5822 5821 5820 5818 5817 5816 5814 5813 5811 5809 5808 5806 5804 5803 5801 5799 5797 5795 5793 5791 5789 5787 5785 5783 5782 5780 5779
5812 5814 5816 5817 5818 5819 5819 5819 5821 5821 5821 5822 5822 5822 5822 5822 5821 5820 5819 5818 5816 5815 5814 5812 5810 5809 5807 5806 5804 5802 5800 5798 5797 5795 5793 5791 5789 5787 5785 5783 5781 5779 5777 5775
5809 5811 5813 5814 5815 5816 5817 5817 5818 5818 5818 5819 5820 5820 5820 5819 5818 5817 5816 5815 5814 5813 5811 5809 5808 5806 5805 5803 5801 5800 5798 5796 5794 5793 5791 5789 5787 5784 5782 5780 5777 5775 5773 5772
5806 5808 5810 5810 5811 5812 5813 5814 5813 5815 5815 5816 5816 5819 5817 5816 5815 5814 5813 5811 5810 5809 5808 5807 5805 5803 5802 5801 5799 5797 5795 5794 5792 5791 5788 5786 5784 5782 5779 5777 5775 5772 5770 5767
5803 5805 5806 5808 5809 5809 5809 5810 5811 5812 5813 5813 5813 5816 5813 5812 5811 5810 5809 5808 5806 5806 5804 5803 5802 5800 5799 5797 5796 5794 5792 5791 5790 5788 5785 5783 5781 5779 5777 5774 5771 5769 5766 5763
5800 5802 5804 5805 5807 5807 5806 5807 5808 5809 5809 5809 5809 5812 5809 5807 5806 5805 5804 5803 5802 5801 5800 5799 5798 5797 5795 5794 5793 5791 5789 5788 5786 5784 5782 5780 5778 5776 5773 5771 5768 5765 5762 5760
5797 5798 5801 5802 5802 5803 5803 5803 5804 5805 5805 5805 5805 5805 5805 5803 5802 5801 5800 5799 5798 5797 5796 5795 5794 5793 5791 5790 5789 5787 5786 5784 5783 5781 5779 5777 5775 5772 5770 5767 5764 5762 5759 5756
5792 5794 5796 5797 5798 5799 5799 5799 5800 5800 5800 5800 5801 5800 5800 5799 5798 5797 5796 5795 5794 5793 5792 5791 5790 5789 5787 5786 5785 5783 5782 5781 5779 5777 5775 5773 5771 5768 5766 5763 5760 5758 5755 5753
5787 5789 5790 5792 5793 5793 5794 5794 5795 5795 5795 5795 5795 5795 5794 5794 5793 5792 5791 5791 5790 5789 5788 5787 5785 5784 5783 5782 5780 5779 5778 5777 5775 5773 5771 5769 5766 5764 5761 5759 5756 5753 5751 5749
5782 5784 5785 5787 5787 5788 5789 5790 5790 5790 5790 5790 5790 5791 5789 5789 5788 5787 5786 5786 5785 5784 5783 5782 5781 5780 5778 5777 5775 5774 5773 5772 5770 5768 5766 5764 5762 5759 5757 5754 5752 5749 5747 5744
5777 5779 5780 5781 5782 5782 5786 5785 5785 5785 5785 5785 5785 5784 5784 5784 5783 5782 5781 5780 5780 5779 5778 5777 5776 5775 5773 5772 5770 5769 5768 5767 5765 5764 5761 5759 5757 5755 5752 5750 5747 5745 5742 5740
5772 5774 5774 5775 5776 5777 5779 5779 5780 5780 5780 5781 5780 5780 5779 5778 5778 5777 5776 5775 5774 5774 5773 5772 5771 5770 5769 5767 5766 5764 5763 5762 5761 5759 5757 5755 5753 5750 5748 5746 5743 5740 5738 5735
5766 5768 5769 5770 5771 5772 5775 5775 5774 5776 5776 5776 5775 5775 5774 5773 5773 5772 5771 5769 5769 5768 5768 5767 5766 5765 5764 5763 5761 5760 5759 5757 5756 5754 5752 5750 5748 5746 5744 5741 5738 5736 5733 5730
5761 5762 5763 5765 5766 5767 5769 5769 5770 5771 5772 5770 5770 5769 5769 5768 5767 5767 5765 5764 5763 5763 5762 5762 5761 5760 5759 5758 5757 5755 5754 5752 5751 5749 5747 5746 5744 5741 5739 5736 5734 5731 5728 5725
5755 5757 5758 5760 5761 5764 5763 5764 5765 5765 5765 5764 5764 5764 5764 5763 5762 5761 5760 5759 5758 5757 5757 5756 5755 5755 5754 5753 5751 5750 5749 5747 5745 5744 5742 5741 5739 5737 5734 5732 5729 5726 5724 5721
5750 5752 5753 5755 5757 5757 5757 5758 5759 5759 5759 5759 5759 5759 5758 5758 5757 5756 5756 5755 5754 5753 5752 5751 5750 5749 5748 5747 5746 5745 5744 5743 5741 5740 5738 5736 5734 5732 5730 5727 5725 5722 5719 5716
5744 5746 5747 5748 5749 5750 5751 5752 5752 5753 5753 5753 5753 5753 5753 5752 5752 5751 5751 5750 5749 5748 5747 5746 5745 5744 5743 5742 5741 5740 5739 5738 5737 5735 5734 5732 5730 5727 5725 5722 5719 5717 5714 5712
5738 5739 5740 5741 5743 5744 5744 5745 5745 5746 5746 5747 5747 5747 5747 5747 5746 5746 5745 5744 5743 5743 5742 5741 5740 5739 5738 5737 5736 5735 5734 5733 5732 5730 5729 5727 5725 5722 5720 5717 5715 5712 5709 5706
5731 5732 5733 5734 5736 5737 5738 5738 5738 5739 5740 5740 5740 5741 5741 5741 5740 5740 5739 5739 5738 5737 5736 5735 5734 5733 5732 5731 5730 5730 5729 5728 5726 5725 5723 5721 5719 5717 5715 5712 5710 5707 5704 5701